SCP
-0 -0 -0 -0 -0 -0 0 -0 0 0 0 -0 0 0 0 0 0 0 0 0 0 0 0 0 0 0 0 0 0 0 0 0 0 0 -0 -0 -0 0 0 0 0 0 0 0
-0 -0 -0 -0 -0 0 0 0 0 0 -0 0 0 0 0 0 0 0 0 0 0 0 0 0 0 0 0 0 0 0 0 0 0 0 0 0 0 0 0 0 0 0 0 0
-0 -0 -0 -0 -0 0 0 0 0 0 0 0 0 0 0 0 0 0 0 0 0 0 0 0 0 0 0 0 0 0 0 0 0 0 0 0 0 0 0 0 0 0 0 0
0 0 0 -0 -0 -0 0 0 0 0 0 0 0 0 0 0 0 0 0 0 0 0 0 0 0 0 0 0 0 0 0 0 0 0 0 0 0 0 0 0 0 0 0 0
0 0 0 0 -0 -0 0 0 0 0 0 0 0 0 0 0 0 0 0 0 0 0 0 0 -0 0 0 0 0 0 0 0 0 0 0 0 0 0 0 0 0 0 0 0
0 0 0 0 -0 0 0 0 0 0 0 0 0 0 0 0 0 0 0 0 0 0 0 0 0 0 0 0 0 0 0 0 0 0 0 0 0 0 0 0 0 0 0 0
0 0 0 0 0 0 0 0 0 0 0 0 0 0 0 0 0 0 0 0 0 0 0 0 0 0 0 0 0 0 0 0 0 0 0 0 0 0 0 0 0 0 0 0
0 0 0 0 0 0 0 0 0 0 0 0 0 0 0 0 0 0 0 0 0 0 0 0 0 0 0 0 0 0 0 0 0 0 0 0 0 0 0 0 0 0 0 0
0 0 0 0 0 0 0 0 0 0 0 0 0 0 0 0 0 0 0 0 0 0 0 0 0 0 0 0 0 0 0 0 0 0 0 0 0 0 0 0 0 0 0 0
0 0 0 0 0 0 0 0 0 0 0 0 0 0 0 0 0 0 0 0 0 0 0 0 0 0 0 0 0 0 0 0 0 0 0 0 0 0 0 0 0 -0 0 0
0 0 0 0 0 0 0 0 0 0 0 0 0 0 0 0 0 0 0 0 0 0 0 0 0 0 0 0 0 0 0 0 0 0 0 0 0 0 0 0 0 0 0 0
0 0 0 0 0 0 0 0 -0 0 0 0 0 0 0 0 0 0 0 0 0 0 0 0 0 0 0 0 0 0 0 0 0 0 0 0 0 0 0 0 0 0 0 0
0 0 0 0 0 0 0 0 0 0 0 0 0 0 0 0 0 0 0 0 0 0 0 0 0 0 0 0 0 0 0 0 0 0 0 0 0 0 0 0 0 0 0 0
0 0 0 0 0 0 0 0 0 0 0 0 0 0 0 0 0 0 0 0 0 0 0 0 0 0 0 0 0 0 0 0 0 0 0 0 0 0 0 0 0 0 0 0
0 0 0 0 0 0 0 0 0 0 0 0 0 0 0 0 0 0 0 0 0 0 0 0 0 0 0 0 0 0 0 0 0 0 0 0 0 0 0 0 0 0 0 0
0 0 0 0 0 0 0 0 0 0 0 0 0 0 0 0 0 0 0 0 0 0 0 0 0 0 0 0 0 0 0 0 0 0 0 0 0 0 0 0 0 0 0 0
0 0 0 0 0 0 0 0 0 0 0 0 0 0 0 0 0 0 0 0 0 0 0 0 0 0 0 0 0 0 0 0 0 0 0 0 0 0 0 0 0 0 0 0
0 0 0 0 0 0 0 0 0 0 0 0 0 0 0 0 0 0 0 0 0 0 0 0 0 0 0 0 0 0 0 0 0 0 0 0 0 0 0 0 0 0 0 0
0 0 0 0 0 0 0 0 0 0 0 0 0 0 0 0 0 0 0 0 0 0 0 0 0 0 0 0 0 0 0 0 0 0 0 0 0 0 0 0 0 0 -0 0
0 0 0 0 0 0 0 0 0 0 0 0 0 0 0 0 0 0 0 0 0 0 0 0 0 0 0 0 0 0 0 0 0 0 0 0 0 0 0 0 0 0 -0 0
0 0 0 0 0 0 0 0 0 0 0 0 0 0 0 0 0 0 0 0 0 0 0 0 0 0 0 0 0 0 0 0 0 0 0 0 0 0 0 0 0 -0 0 -0
0 0 0 0 0 0 0 0 0 0 0 0 0 0 0 0 0 0 0 0 0 0 0 0 0 0 0 0 0 0 0 0 0 0 0 0 0 0 0 0 -0 -0 0 -0
0 0 0 0 0 0 0 0 0 0 0 0 0 0 0 0 0 0 0 0 0 0 0 0 0 0 0 0 0 0 0 0 0 0 0 0 0 0 0 -0 0 0 0 -0
0 0 0 0 0 0 0 0 0 0 0 0 0 0 0 0 0 0 0 0 0 0 0 0 0 0 0 0 0 0 0 0 0 0 -0 0 0 0 0 0 -0 0 -0 0
0 0 0 0 0 0 0 0 0 0 0 0 0 0 0 0 0 0 0 0 0 0 0 0 0 0 0 0 0 0 0 0 0 0 0 0 0 0 0 -0 -0 0 -0 -0
0 0 0 0 0 0 0 0 0 0 0 0 0 0 0 0 0 0 0 0 0 0 0 0 0 0 0 0 0 0 0 0 0 0 0 0 0 0 0 -0 -0 -0 -0 -0
0 0 0 0 0 0 0 0 0 0 0 0 0 0 0 0 0 0 0 0 0 0 0 0 0 0 0 0 0 0 0 0 0 0 0 0 0 0 0 -0 -0 -0 0 -0
Wind_Speed_500mb
48 49 49 49 44 36 18 11 10 8 11 15 17 14 14 11 16 6 6 10 14 14 18 15 20 20 12 14 14 20 20 11 23 36 47 39 27 24 25 9 24 28 28 38
47 49 46 42 44 42 34 18 13 6 12 9 12 11 1 7 13 10 14 11 7 16 14 10 13 15 9 10 9 12 16 8 15 19 16 31 36 31 39 30 23 35 32 29
46 49 45 38 33 36 28 14 8 5 8 8 12 11 3 2 11 7 9 14 12 14 15 16 13 19 18 3 11 17 7 13 20 22 36 39 40 46 47 42 17 29 30 38
43 45 44 39 31 26 22 9 8 7 9 13 13 5 7 11 1 3 7 9 8 8 10 23 27 21 29 34 3 9 8 22 30 34 42 47 49 50 48 37 40 30 34 37
37 40 41 42 34 18 11 15 13 19 24 9 12 9 6 9 11 8 9 4 19 18 18 22 31 28 24 17 23 21 17 28 35 43 46 42 45 46 33 28 24 21 32 38
31 33 35 40 40 23 13 19 9 13 13 13 11 11 8 6 4 4 7 13 16 19 21 26 33 38 39 38 29 26 23 22 27 39 43 43 38 20 32 29 34 30 30 38
26 27 27 32 36 31 23 19 16 15 16 4 11 7 4 8 6 11 20 19 19 18 26 39 45 48 46 38 33 33 19 20 21 27 37 27 14 25 22 19 29 33 28 30
22 24 23 24 26 28 17 21 12 13 13 22 13 5 9 10 12 15 7 11 10 25 28 14 16 16 19 17 29 16 23 15 20 17 22 34 18 11 15 21 32 15 25 40
22 23 20 22 21 21 13 21 18 8 14 9 13 15 11 11 11 14 9 3 8 17 22 15 17 20 14 11 16 11 10 15 15 23 34 26 19 34 32 39 20 30 56 47
24 23 20 17 17 16 19 9 23 6 16 3 14 10 15 12 7 10 14 9 15 7 11 16 14 20 14 14 19 28 22 24 25 25 30 14 13 41 37 15 20 60 55 59
24 23 17 14 15 15 15 9 24 12 11 25 9 4 9 8 9 11 15 15 9 17 15 10 10 13 11 18 19 24 25 12 19 14 23 13 59 38 11 22 52 58 60 65
25 23 19 13 14 14 10 9 24 29 9 13 16 22 22 14 7 10 7 10 11 12 8 10 8 20 14 21 18 17 7 14 9 12 14 41 44 38 48 49 55 61 66 66
29 26 25 16 15 13 11 9 13 23 19 32 25 14 9 9 11 11 9 9 6 1 6 16 8 13 10 13 18 23 28 30 14 23 18 33 43 51 56 60 63 64 60 69
32 31 28 23 17 15 14 7 14 13 15 12 9 12 5 10 11 12 17 11 8 11 14 22 15 12 16 16 27 23 20 24 10 22 31 53 37 55 61 64 63 59 63 58
36 37 31 25 17 16 17 22 10 8 3 13 14 15 18 13 11 12 13 14 13 18 22 20 17 31 14 22 26 15 12 8 7 16 40 34 50 56 58 55 65 60 56 63
40 38 32 26 16 14 10 4 4 7 9 10 8 5 12 15 14 15 17 19 19 20 24 24 21 30 17 10 15 31 21 24 30 25 39 45 52 54 55 60 59 54 56 69
41 42 35 28 26 20 11 4 15 15 11 8 13 8 15 18 19 21 24 23 21 25 27 25 33 24 10 13 19 36 22 26 24 31 39 48 49 47 55 58 63 60 59 75
43 45 39 38 32 28 27 29 27 22 7 10 8 7 14 25 20 28 30 26 26 27 29 27 28 19 15 7 16 7 17 21 28 37 40 47 49 54 56 60 57 66 63 71
48 46 42 40 34 19 19 23 20 15 11 10 12 12 3 15 18 14 11 19 16 28 19 30 15 10 10 22 18 13 16 22 33 40 46 51 54 52 59 54 61 60 66 69
57 50 20 11 16 19 13 6 8 10 14 16 15 25 14 13 15 14 14 14 13 11 16 13 9 19 32 20 21 16 20 27 32 41 47 53 43 50 49 45 58 57 63 63
58 24 17 20 22 16 11 12 16 18 12 19 21 35 19 17 10 9 1 6 9 9 10 10 6 7 17 10 11 14 19 28 33 37 45 35 42 52 44 46 59 55 60 58
39 26 34 33 12 10 11 9 14 16 12 24 29 26 30 12 4 10 8 7 7 9 2 6 7 9 10 13 7 14 19 29 37 43 46 41 38 42 41 49 50 56 60 57
46 13 19 15 12 10 11 16 13 13 17 26 34 24 23 10 10 11 5 5 10 15 8 10 9 15 11 9 3 17 23 30 37 43 48 37 38 41 45 57 56 48 58 52
14 18 13 13 11 15 17 23 17 21 29 39 38 33 19 13 10 9 8 9 8 8 6 10 12 15 11 11 14 19 28 32 37 41 49 38 40 36 38 47 45 44 52 48
16 16 13 17 26 32 28 30 20 31 35 40 33 21 16 11 6 8 9 7 9 5 9 9 10 7 13 5 11 22 28 34 39 41 49 37 33 30 33 48 41 47 49 42
16 15 8 20 22 31 17 31 33 32 40 38 28 12 8 11 8 13 15 9 11 17 5 2 5 9 14 9 16 25 31 35 42 47 48 35 28 29 29 47 43 45 41 41
10 11 31 17 25 23 19 10 16 28 33 18 11 15 13 11 10 21 14 21 20 23 9 9 13 13 7 17 26 32 37 37 42 46 45 34 22 23 34 45 44 38 36 38
Wind_Direction_500mb
354 356 357 355 355 359 348 290 285 357 339 266 233 38 15 356 349 342 310 310 314 320 340 314 300 302 4 61 1 321 323 296 294 300 293 282 266 300 302 4 296 285 296 281
351 353 355 357 354 357 354 310 305 8 343 299 353 78 101 10 337 20 337 323 23 343 319 316 299 309 57 46 6 354 354 317 316 309 319 350 320 304 300 291 277 265 285 298
349 351 354 356 358 353 350 306 314 90 45 31 336 20 269 207 113 298 314 306 312 289 301 290 280 288 305 328 282 176 182 264 267 278 292 317 305 295 292 288 294 292 289 308
347 351 354 356 358 5 11 323 49 354 329 48 335 330 340 307 277 13 275 290 214 347 322 323 294 316 325 314 273 197 220 272 280 296 301 294 301 307 310 337 323 325 329 321
346 352 355 357 4 28 12 357 346 342 287 319 287 160 142 309 35 323 327 288 333 334 305 294 298 315 318 305 314 325 311 296 304 296 295 309 303 310 341 330 311 300 337 321
343 352 359 2 7 29 27 352 336 299 304 232 257 67 47 15 331 272 307 328 314 307 328 327 299 290 284 274 284 287 289 289 305 296 303 308 304 346 321 333 340 354 326 339
341 349 357 3 12 27 43 351 333 294 291 257 7 14 356 300 316 307 315 306 295 342 319 304 289 266 250 250 250 246 271 299 294 301 306 300 40 30 4 332 321 322 355 346
327 341 348 355 6 19 47 358 15 325 292 334 261 206 320 306 268 225 297 320 2 326 312 290 301 334 215 212 239 184 216 268 285 292 304 293 2 16 334 332 309 30 335 333
306 328 328 338 353 11 47 327 359 311 298 55 355 322 307 301 330 274 180 186 323 317 290 276 285 298 345 327 328 297 271 241 258 281 284 306 5 352 332 306 292 348 333 325
290 313 317 320 338 355 11 320 357 344 294 334 3 341 347 328 294 289 296 17 318 257 274 304 316 312 332 315 334 332 319 322 301 312 308 295 36 345 352 359 311 319 320 317
277 298 301 320 334 346 11 291 327 347 289 299 317 304 307 299 275 303 16 294 183 261 275 309 336 314 326 318 312 312 306 292 298 313 304 308 348 356 357 303 309 317 321 322
265 277 278 296 321 335 18 27 339 325 278 269 299 283 251 242 272 291 267 305 287 347 311 342 324 318 317 321 309 319 319 325 301 291 282 304 335 333 331 326 320 318 317 316
258 260 266 272 310 318 326 337 330 325 286 292 240 253 197 203 238 233 259 151 20 32 344 315 298 293 303 297 302 312 305 313 302 317 318 329 331 326 324 319 316 315 320 328
251 252 256 260 288 299 305 324 300 326 305 278 155 175 221 222 228 228 225 254 300 304 284 276 279 305 286 311 293 287 327 311 286 304 328 328 326 324 317 316 321 329 332 337
243 247 245 251 275 289 299 312 296 284 312 316 306 267 250 233 195 212 215 229 257 282 275 262 277 285 266 288 290 304 342 335 324 307 327 324 318 321 313 326 332 331 338 338
235 240 238 237 255 284 312 235 241 199 357 305 293 161 186 204 207 211 223 238 252 260 273 284 295 294 271 282 289 293 308 302 329 322 323 332 321 329 333 332 332 336 337 337
232 235 238 232 238 247 217 253 194 202 345 271 279 224 189 199 205 230 239 231 249 251 267 275 275 293 321 287 285 292 301 312 315 321 327 320 326 330 346 339 336 332 330 337
232 227 227 232 233 245 251 250 257 275 251 252 268 253 187 181 217 225 218 235 236 235 245 260 270 284 292 270 279 288 305 316 321 325 322 319 334 341 339 335 342 337 335 338
215 220 228 232 219 214 216 238 252 256 213 280 234 253 88 174 236 264 232 227 264 258 238 256 265 238 222 254 299 292 297 316 319 328 325 335 338 341 336 340 342 339 336 336
209 207 199 201 193 182 182 229 190 209 213 228 251 252 255 196 237 225 230 223 241 264 261 215 238 261 281 256 244 271 300 317 322 327 335 341 348 338 334 342 345 341 339 340
201 174 155 159 155 159 181 222 206 188 219 215 231 223 226 193 254 287 303 317 317 275 263 177 247 263 274 233 254 282 320 308 322 332 337 342 341 338 336 340 342 339 342 341
192 169 137 139 152 197 214 219 210 207 222 180 199 192 206 139 204 250 261 243 230 257 259 219 254 258 161 199 238 269 304 330 332 331 332 341 348 347 339 340 333 337 336 340
152 129 142 153 169 206 222 202 197 189 202 164 177 151 178 146 207 238 265 247 253 293 247 270 289 74 206 187 192 305 332 330 330 331 330 338 348 345 343 339 330 339 336 345
146 152 149 198 185 217 209 223 201 190 177 160 172 158 187 169 182 247 225 233 257 241 196 253 274 98 139 271 327 341 331 329 330 336 332 350 350 348 339 342 339 341 342 347
154 162 192 208 224 227 226 244 218 174 164 158 180 160 197 176 215 214 222 247 236 243 247 283 356 180 185 197 323 331 329 325 326 333 333 343 346 342 340 346 351 340 345 343
161 194 207 222 220 242 209 204 187 183 169 167 165 151 196 195 208 217 212 226 254 280 53 119 213 155 324 335 324 317 317 321 322 326 327 337 339 342 349 350 353 345 352 352
185 230 211 241 210 204 207 220 212 205 175 168 167 189 183 219 218 226 244 260 267 328 47 213 177 177 192 291 306 308 311 316 319 318 323 329 339 340 348 357 358 354 360 359
Wind_Speed_850mb
48 49 49 49 44 36 18 11 10 8 11 15 17 14 14 11 16 6 6 10 14 14 18 15 20 20 12 14 14 20 20 11 23 36 47 39 27 24 25 9 24 28 28 38
47 49 46 42 44 42 34 18 13 6 12 9 12 11 1 7 13 10 14 11 7 16 14 10 13 15 9 10 9 12 16 8 15 19 16 31 36 31 39 30 23 35 32 29
46 49 45 38 33 36 28 14 8 5 8 8 12 11 3 2 11 7 9 14 12 14 15 16 13 19 18 3 11 17 7 13 20 22 36 39 40 46 47 42 17 29 30 38
43 45 44 39 31 26 22 9 8 7 9 13 13 5 7 11 1 3 7 9 8 8 10 23 27 21 29 34 3 9 8 22 30 34 42 47 49 50 48 37 40 30 34 37
37 40 41 42 34 18 11 15 13 19 24 9 12 9 6 9 11 8 9 4 19 18 18 22 31 28 24 17 23 21 17 28 35 43 46 42 45 46 33 28 24 21 32 38
31 33 35 40 40 23 13 19 9 13 13 13 11 11 8 6 4 4 7 13 16 19 21 26 33 38 39 38 29 26 23 22 27 39 43 43 38 20 32 29 34 30 30 38
26 27 27 32 36 31 23 19 16 15 16 4 11 7 4 8 6 11 20 19 19 18 26 39 45 48 46 38 33 33 19 20 21 27 37 27 14 25 22 19 29 33 28 30
22 24 23 24 26 28 17 21 12 13 13 22 13 5 9 10 12 15 7 11 10 25 28 14 16 16 19 17 29 16 23 15 20 17 22 34 18 11 15 21 32 15 25 40
22 23 20 22 21 21 13 21 18 8 14 9 13 15 11 11 11 14 9 3 8 17 22 15 17 20 14 11 16 11 10 15 15 23 34 26 19 34 32 39 20 30 56 47
24 23 20 17 17 16 19 9 23 6 16 3 14 10 15 12 7 10 14 9 15 7 11 16 14 20 14 14 19 28 22 24 25 25 30 14 13 41 37 15 20 60 55 59
24 23 17 14 15 15 15 9 24 12 11 25 9 4 9 8 9 11 15 15 9 17 15 10 10 13 11 18 19 24 25 12 19 14 23 13 59 38 11 22 52 58 60 65
25 23 19 13 14 14 10 9 24 29 9 13 16 22 22 14 7 10 7 10 11 12 8 10 8 20 14 21 18 17 7 14 9 12 14 41 44 38 48 49 55 61 66 66
29 26 25 16 15 13 11 9 13 23 19 32 25 14 9 9 11 11 9 9 6 1 6 16 8 13 10 13 18 23 28 30 14 23 18 33 43 51 56 60 63 64 60 69
32 31 28 23 17 15 14 7 14 13 15 12 9 12 5 10 11 12 17 11 8 11 14 22 15 12 16 16 27 23 20 24 10 22 31 53 37 55 61 64 63 59 63 58
36 37 31 25 17 16 17 22 10 8 3 13 14 15 18 13 11 12 13 14 13 18 22 20 17 31 14 22 26 15 12 8 7 16 40 34 50 56 58 55 65 60 56 63
40 38 32 26 16 14 10 4 4 7 9 10 8 5 12 15 14 15 17 19 19 20 24 24 21 30 17 10 15 31 21 24 30 25 39 45 52 54 55 60 59 54 56 69
41 42 35 28 26 20 11 4 15 15 11 8 13 8 15 18 19 21 24 23 21 25 27 25 33 24 10 13 19 36 22 26 24 31 39 48 49 47 55 58 63 60 59 75
43 45 39 38 32 28 27 29 27 22 7 10 8 7 14 25 20 28 30 26 26 27 29 27 28 19 15 7 16 7 17 21 28 37 40 47 49 54 56 60 57 66 63 71
48 46 42 40 34 19 19 23 20 15 11 10 12 12 3 15 18 14 11 19 16 28 19 30 15 10 10 22 18 13 16 22 33 40 46 51 54 52 59 54 61 60 66 69
57 50 20 11 16 19 13 6 8 10 14 16 15 25 14 13 15 14 14 14 13 11 16 13 9 19 32 20 21 16 20 27 32 41 47 53 43 50 49 45 58 57 63 63
58 24 17 20 22 16 11 12 16 18 12 19 21 35 19 17 10 9 1 6 9 9 10 10 6 7 17 10 11 14 19 28 33 37 45 35 42 52 44 46 59 55 60 58
39 26 34 33 12 10 11 9 14 16 12 24 29 26 30 12 4 10 8 7 7 9 2 6 7 9 10 13 7 14 19 29 37 43 46 41 38 42 41 49 50 56 60 57
46 13 19 15 12 10 11 16 13 13 17 26 34 24 23 10 10 11 5 5 10 15 8 10 9 15 11 9 3 17 23 30 37 43 48 37 38 41 45 57 56 48 58 52
14 18 13 13 11 15 17 23 17 21 29 39 38 33 19 13 10 9 8 9 8 8 6 10 12 15 11 11 14 19 28 32 37 41 49 38 40 36 38 47 45 44 52 48
16 16 13 17 26 32 28 30 20 31 35 40 33 21 16 11 6 8 9 7 9 5 9 9 10 7 13 5 11 22 28 34 39 41 49 37 33 30 33 48 41 47 49 42
16 15 8 20 22 31 17 31 33 32 40 38 28 12 8 11 8 13 15 9 11 17 5 2 5 9 14 9 16 25 31 35 42 47 48 35 28 29 29 47 43 45 41 41
10 11 31 17 25 23 19 10 16 28 33 18 11 15 13 11 10 21 14 21 20 23 9 9 13 13 7 17 26 32 37 37 42 46 45 34 22 23 34 45 44 38 36 38
Wind_Direction_850mb
354 356 357 355 355 359 348 290 285 357 339 266 233 38 15 356 349 342 310 310 314 320 340 314 300 302 4 61 1 321 323 296 294 300 293 282 266 300 302 4 296 285 296 281
351 353 355 357 354 357 354 310 305 8 343 299 353 78 101 10 337 20 337 323 23 343 319 316 299 309 57 46 6 354 354 317 316 309 319 350 320 304 300 291 277 265 285 298
349 351 354 356 358 353 350 306 314 90 45 31 336 20 269 207 113 298 314 306 312 289 301 290 280 288 305 328 282 176 182 264 267 278 292 317 305 295 292 288 294 292 289 308
347 351 354 356 358 5 11 323 49 354 329 48 335 330 340 307 277 13 275 290 214 347 322 323 294 316 325 314 273 197 220 272 280 296 301 294 301 307 310 337 323 325 329 321
346 352 355 357 4 28 12 357 346 342 287 319 287 160 142 309 35 323 327 288 333 334 305 294 298 315 318 305 314 325 311 296 304 296 295 309 303 310 341 330 311 300 337 321
343 352 359 2 7 29 27 352 336 299 304 232 257 67 47 15 331 272 307 328 314 307 328 327 299 290 284 274 284 287 289 289 305 296 303 308 304 346 321 333 340 354 326 339
341 349 357 3 12 27 43 351 333 294 291 257 7 14 356 300 316 307 315 306 295 342 319 304 289 266 250 250 250 246 271 299 294 301 306 300 40 30 4 332 321 322 355 346
327 341 348 355 6 19 47 358 15 325 292 334 261 206 320 306 268 225 297 320 2 326 312 290 301 334 215 212 239 184 216 268 285 292 304 293 2 16 334 332 309 30 335 333
306 328 328 338 353 11 47 327 359 311 298 55 355 322 307 301 330 274 180 186 323 317 290 276 285 298 345 327 328 297 271 241 258 281 284 306 5 352 332 306 292 348 333 325
290 313 317 320 338 355 11 320 357 344 294 334 3 341 347 328 294 289 296 17 318 257 274 304 316 312 332 315 334 332 319 322 301 312 308 295 36 345 352 359 311 319 320 317
277 298 301 320 334 346 11 291 327 347 289 299 317 304 307 299 275 303 16 294 183 261 275 309 336 314 326 318 312 312 306 292 298 313 304 308 348 356 357 303 309 317 321 322
265 277 278 296 321 335 18 27 339 325 278 269 299 283 251 242 272 291 267 305 287 347 311 342 324 318 317 321 309 319 319 325 301 291 282 304 335 333 331 326 320 318 317 316
258 260 266 272 310 318 326 337 330 325 286 292 240 253 197 203 238 233 259 151 20 32 344 315 298 293 303 297 302 312 305 313 302 317 318 329 331 326 324 319 316 315 320 328
251 252 256 260 288 299 305 324 300 326 305 278 155 175 221 222 228 228 225 254 300 304 284 276 279 305 286 311 293 287 327 311 286 304 328 328 326 324 317 316 321 329 332 337
243 247 245 251 275 289 299 312 296 284 312 316 306 267 250 233 195 212 215 229 257 282 275 262 277 285 266 288 290 304 342 335 324 307 327 324 318 321 313 326 332 331 338 338
235 240 238 237 255 284 312 235 241 199 357 305 293 161 186 204 207 211 223 238 252 260 273 284 295 294 271 282 289 293 308 302 329 322 323 332 321 329 333 332 332 336 337 337
232 235 238 232 238 247 217 253 194 202 345 271 279 224 189 199 205 230 239 231 249 251 267 275 275 293 321 287 285 292 301 312 315 321 327 320 326 330 346 339 336 332 330 337
232 227 227 232 233 245 251 250 257 275 251 252 268 253 187 181 217 225 218 235 236 235 245 260 270 284 292 270 279 288 305 316 321 325 322 319 334 341 339 335 342 337 335 338
215 220 228 232 219 214 216 238 252 256 213 280 234 253 88 174 236 264 232 227 264 258 238 256 265 238 222 254 299 292 297 316 319 328 325 335 338 341 336 340 342 339 336 336
209 207 199 201 193 182 182 229 190 209 213 228 251 252 255 196 237 225 230 223 241 264 261 215 238 261 281 256 244 271 300 317 322 327 335 341 348 338 334 342 345 341 339 340
201 174 155 159 155 159 181 222 206 188 219 215 231 223 226 193 254 287 303 317 317 275 263 177 247 263 274 233 254 282 320 308 322 332 337 342 341 338 336 340 342 339 342 341
192 169 137 139 152 197 214 219 210 207 222 180 199 192 206 139 204 250 261 243 230 257 259 219 254 258 161 199 238 269 304 330 332 331 332 341 348 347 339 340 333 337 336 340
152 129 142 153 169 206 222 202 197 189 202 164 177 151 178 146 207 238 265 247 253 293 247 270 289 74 206 187 192 305 332 330 330 331 330 338 348 345 343 339 330 339 336 345
146 152 149 198 185 217 209 223 201 190 177 160 172 158 187 169 182 247 225 233 257 241 196 253 274 98 139 271 327 341 331 329 330 336 332 350 350 348 339 342 339 341 342 347
154 162 192 208 224 227 226 244 218 174 164 158 180 160 197 176 215 214 222 247 236 243 247 283 356 180 185 197 323 331 329 325 326 333 333 343 346 342 340 346 351 340 345 343
161 194 207 222 220 242 209 204 187 183 169 167 165 151 196 195 208 217 212 226 254 280 53 119 213 155 324 335 324 317 317 321 322 326 327 337 339 342 349 350 353 345 352 352
185 230 211 241 210 204 207 220 212 205 175 168 167 189 183 219 218 226 244 260 267 328 47 213 177 177 192 291 306 308 311 316 319 318 323 329 339 340 348 357 358 354 360 359